Content
SEND FEEDBACK

Daily
Averages
Monthly
Summary
United States of America

ORANGE, TEXAS


Home > North America > United States > Texas
Elevation: 1 foot     Latitude: 30 07N     Longitude: 093 47W

WEATHER
 
SELECT A DAY
Number of Records: 110,713;   Date Range: 8/25/05 - 9/20/14
 
SHARE

PRINT THIS DATA

[ ← Previous Day ]
WEATHER ALMANAC - APRIL 20, 2013
[ Next Day → ]
[ °C ]   °F
Weather ElementAverageHighLow
Temperature54.6 °F68.2 °F (4:55 pm)38.3 °F (6:35 am)
Dewpoint40.2 °F48.4 °F (10:35 pm)33.1 °F (10:55 am)
Humidity64.6 %97 % (5:35 am)29 % (3:15 pm)
Barometer30.21 in30.29 in (9:55 am)30.13 in (5:35 pm)
Wind Speed3.8 mph13.8 mph (10:55 am)
Wind Gust20.7 mph (1:55 pm)
Weather ElementAverage
Visibility9.9 mi
Wind DirectionNE (44.6 °)

Weather ElementTotal
Precipitation---
Heating Degree Days11.8 (Base 65)
Growing Degree Days3.3 (Base 50)
Averaged from 71 records on April 20, 2013
WEATHER CONDITIONS BREAKOUT
WIND DIRECTION BREAKOUT
WEATHER BY HOUR - APRIL 20, 2013
[ °C ]   °F
Local TimeTemperatureDewpointHumidityBarometerVisibilityWind DirectionWind SpeedGust SpeedPrecipitationEventsConditions
12:35 AM43.2 °F41.0 °F92 %30.25 in10.0 miCalmClear
12:55 AM43.0 °F41.0 °F93 %30.24 in10.0 miCalmClear
1:15 AM42.6 °F41.2 °F95 %30.25 in10.0 miCalmClear
1:35 AM41.9 °F40.3 °F94 %30.24 in10.0 miCalmClear
1:55 AM42.6 °F41.5 °F96 %30.24 in10.0 miCalmClear
2:15 AM43.7 °F41.4 °F91 %30.24 in10.0 miCalmClear
2:35 AM44.4 °F40.3 °F85 %30.23 in10.0 miCalmClear
2:55 AM43.9 °F40.3 °F87 %30.23 in10.0 miCalmClear
3:15 AM42.4 °F39.7 °F90 %30.22 in10.0 miCalmClear
3:35 AM41.7 °F39.0 °F90 %30.22 in10.0 miCalmClear
3:55 AM41.2 °F39.6 °F94 %30.22 in10.0 miCalmClear
4:15 AM41.5 °F39.6 °F93 %30.22 in10.0 miCalmClear
4:35 AM41.0 °F39.2 °F93 %30.21 in10.0 miCalmClear
4:55 AM41.2 °F39.4 °F93 %30.21 in10.0 miCalmClear
5:15 AM40.1 °F38.5 °F94 %30.22 in10.0 miCalmClear
5:35 AM39.2 °F38.3 °F97 %30.22 in10.0 miCalmClear
5:55 AM39.2 °F38.3 °F97 %30.23 in10.0 miCalmClear
6:15 AM38.8 °F37.9 °F97 %30.24 in10.0 miCalmClear
6:35 AM38.3 °F37.6 °F97 %30.24 in10.0 miCalmClear
6:55 AM38.8 °F38.1 °F97 %30.25 in7.0 miCalmClear
7:15 AM39.6 °F38.8 °F97 %30.26 in7.0 miCalmClear
7:35 AM41.5 °F40.6 °F97 %30.26 in10.0 miCalmClear
7:55 AM45.0 °F42.1 °F90 %30.27 in10.0 miCalmClear
8:15 AM49.1 °F42.4 °F78 %30.27 in10.0 miCalmClear
8:35 AM51.1 °F43.0 °F74 %30.28 in10.0 miCalmClear
8:55 AM53.6 °F42.3 °F65 %30.28 in10.0 miCalmClear
9:15 AM55.4 °F41.2 °F59 %30.28 in10.0 miCalmClear
9:35 AM57.6 °F40.1 °F52 %30.28 in10.0 miENE (60°)6.9 mphClear
9:55 AM58.6 °F38.8 °F48 %30.29 in10.0 miENE (60°)6.9 mphClear
10:15 AM59.5 °F38.7 °F46 %30.29 in10.0 miEast (90°)9.2 mphClear
10:35 AM60.8 °F34.3 °F37 %30.29 in10.0 miEast (90°)11.5 mph18.4 mphClear
10:55 AM62.1 °F33.1 °F34 %30.29 in10.0 miEast (90°)13.8 mph17.3 mphClear
11:15 AM62.2 °F34.5 °F36 %30.28 in10.0 miESE (110°)10.4 mph17.3 mphClear
11:35 AM63.1 °F37.2 °F38 %30.27 in10.0 miEast (80°)8.1 mphClear
11:55 AM63.9 °F37.6 °F38 %30.27 in10.0 miESE (110°)10.4 mph17.3 mphClear
12:15 PM63.5 °F37.0 °F38 %30.26 in10.0 miEast (80°)10.4 mph16.1 mphClear
12:35 PM64.2 °F35.8 °F35 %30.26 in10.0 miESE (110°)12.7 mph16.1 mphClear
12:55 PM65.1 °F36.1 °F34 %30.24 in10.0 miSE (130°)6.9 mphClear
1:15 PM64.8 °F35.6 °F34 %30.24 in10.0 miESE (110°)9.2 mph16.1 mphClear
1:35 PM65.7 °F35.6 °F33 %30.22 in10.0 miEast (100°)10.4 mph17.3 mphClear
1:55 PM66.7 °F36.0 °F32 %30.21 in10.0 miENE (70°)12.7 mph20.7 mphClear
2:15 PM66.9 °F35.4 °F31 %30.21 in10.0 miESE (110°)11.5 mph17.3 mphClear
2:35 PM67.1 °F34.9 °F30 %30.20 in10.0 miSE (130°)6.9 mphClear
2:55 PM67.3 °F35.8 °F31 %30.19 in10.0 miEast (90°)9.2 mph17.3 mphClear
3:15 PM66.7 °F33.4 °F29 %30.19 in10.0 miEast (100°)8.1 mphClear
3:35 PM67.3 °F35.1 °F30 %30.18 in10.0 miEast (90°)5.8 mphClear
3:55 PM67.5 °F34.9 °F30 %30.17 in10.0 miCalmClear
4:15 PM67.8 °F34.3 °F29 %30.16 in10.0 miESE (120°)6.9 mphClear
4:35 PM68.0 °F34.3 °F29 %30.15 in10.0 miESE (120°)10.4 mphClear
4:55 PM68.2 °F34.9 °F29 %30.14 in10.0 miESE (120°)9.2 mphClear
5:15 PM68.0 °F34.9 °F29 %30.14 in10.0 miEast (100°)9.2 mphClear
5:35 PM67.6 °F34.5 °F29 %30.13 in10.0 miESE (120°)8.1 mphClear
5:55 PM67.1 °F35.1 °F31 %30.13 in10.0 miESE (110°)11.5 mphClear
6:15 PM65.8 °F42.3 °F42 %30.13 in10.0 miSouth (170°)6.9 mphClear
6:35 PM64.9 °F44.1 °F47 %30.13 in10.0 miSouth (190°)9.2 mphClear
6:55 PM64.0 °F45.0 °F50 %30.13 in10.0 miSSE (150°)9.2 mphClear
7:15 PM62.6 °F45.1 °F53 %30.13 in10.0 miSSE (160°)8.1 mphClear
7:35 PM61.2 °F45.5 °F56 %30.14 in10.0 miCalmClear
7:55 PM59.4 °F46.4 °F62 %30.14 in10.0 miCalmClear
8:15 PM58.6 °F46.8 °F65 %30.15 in10.0 miCalmClear
8:35 PM57.7 °F47.1 °F68 %30.16 in10.0 miCalmClear
8:55 PM57.6 °F46.9 °F68 %30.16 in10.0 miCalmClear
9:15 PM57.7 °F47.5 °F69 %30.17 in10.0 miCalmClear
9:35 PM53.8 °F47.7 °F80 %30.18 in10.0 miCalmClear
9:55 PM54.1 °F47.7 °F79 %30.19 in10.0 miCalmClear
10:15 PM52.9 °F48.0 °F84 %30.19 in10.0 miCalmClear
10:35 PM51.1 °F48.4 °F90 %30.19 in10.0 miCalmClear
10:55 PM50.9 °F48.2 °F90 %30.19 in10.0 miCalmClear
11:15 PM50.5 °F48.2 °F92 %30.18 in10.0 miCalmClear
11:35 PM52.9 °F48.0 °F84 %30.18 in10.0 miCalmClear
11:55 PM49.6 °F47.7 °F93 %30.18 in10.0 miCalmClear
Hourly data recorded from KORG, located miles away from Orange, Texas







STORIES FROM OUR PARTNERS